Please be sure to check the latest weather conditions by clicking the link and viewing our local weather information!

Check Weather

Welcome to Lakeway Airpark (3R9)

FromTheAir

We’re a community airpark nestled within the town of Lakeway, Texas (17 miles northwest of downtown Austin).

Lakeway Airpark, Inc. was formed by Lakeway residents and interested parties to own and manage Lakeway Airpark (3R9).

The Airpark is a privately owned not for profit public use airport for residents and guests of Lakeway. No public funds are used and the airport is supported by fees and fuel sales at the airport.

Lakeway Airpark is an unmanned facility open for use from Sunrise to Sunset seven days a week. Takeoffs and landings are not permitted at night, between Sunset and Sunrise, by City Ordinance.

Quick Weather Info

Available data for KAUS from the past 2 hours
AUSTIN, TX
Metar
KAUS 290053Z 14013KT 9SM FEW070 SCT250 30/21 A2954 RMK AO2 SLP992 T03000211

00:53 UTC

Wind: 140° 13kt

Visibility: 9 SM

Sky: FEW 7000 ft

Temp: 30 deg C / 86 deg F

Dewpoint: 21 deg C / 69.8 deg F

Pressure: 29.54 inHg

TAF
KAUS 282326Z 2900/3006 17013G23KT P6SM SCT050 FM290200 17013KT P6SM OVC250 FM290600 17013KT P6SM BKN012 FM292100 18009KT P6SM OVC019 FM300000 VRB10G25KT P6SM VCTS BKN025CB